Debrecen, Hungary

4:09 AM CET on March 25, 2017 (GMT +0100)
Debrecen

Weather History for LHDC - January, 2013

Change the Weather History Date:

Thursday, January 17, 2013

  Actual Average Record
Temperature  
Mean Temperature 36 °F -  
Max Temperature 38 °F 36 °F - ()
Min Temperature 32 °F 25 °F - ()
Degree Days  
Heating Degree Days 30    
Moisture  
Dew Point 31 °F    
Average Humidity 84    
Maximum Humidity 93    
Minimum Humidity 72    
Precipitation  
Precipitation 0.00 in 0.04 in - ()
Sea Level Pressure  
Sea Level Pressure 29.61 in    
Wind  
Wind Speed 11 mph ()    
Max Wind Speed 16 mph    
Max Gust Speed 28 mph    
Visibility 4.2 miles    
Events      
T = Trace of Precipitation, MM = Missing Value Source: Averaged Metar Reports

Daily Weather History Graph

Daily Weather History Graph

Search for Another Location

Airport or City:

Trip Planner

Search our weather history database for the weather conditions in past years. The results will help you decide how hot, cold, wet, or windy it might be!

Date:

Astronomy

Jan. 17, 2013 Rise Set
Actual Time 7:15 AM CET 4:12 PM CET
Civil Twilight 6:40 AM CET 4:47 PM CET
Nautical Twilight 6:02 AM CET 5:25 PM CET
Astronomical Twilight 5:26 AM CET 6:01 PM CET
Moon 9:43 AM CET (1/17) 11:17 PM CET (1/17)
Length of Visible Light 10h 06m
Length of Day
8h 57m
Waxing Crescent, 35% of the Moon is Illuminated
Jan 17
Waxing Crescent
Jan 19
First Quarter
Jan 27
Full
Feb 3
Last Quarter
Feb 10
New

Hourly Weather History & Observations

Time (CET) Temp. Windchill Dew Point Humidity Pressure Visibility Wind Dir Wind Speed Gust Speed Precip Events Conditions
1:00 AM 36 °F - 34 °F 90% 29.58 in - NE 8.9 mph - -  
5:15 AM 33.8 °F 24.8 °F 32.0 °F 93% 29.56 in - NNE 12.7 mph - N/A   Clear
5:45 AM 33.8 °F 25.8 °F 32.0 °F 93% 29.56 in - NNE 10.4 mph - N/A   Clear
6:00 AM - - - N/A% - - NNE 12.7 mph - N/A   Overcast
6:15 AM 33.8 °F 24.8 °F 32.0 °F 93% 29.56 in - NNE 12.7 mph - N/A   Clear
6:45 AM 33.8 °F 24.8 °F 32.0 °F 93% 29.56 in 6.2 mi NNE 12.7 mph - N/A   Mostly Cloudy
7:00 AM 34 °F - 31 °F 85% 29.58 in 9 mi NNE 13.4 mph - -   Partly Cloudy
7:15 AM 33.8 °F 25.3 °F 30.2 °F 87% 29.56 in 3.7 mi NE 11.5 mph - N/A   Mostly Cloudy
7:45 AM 33.8 °F 24.8 °F 30.2 °F 87% 29.59 in 3.7 mi NE 12.7 mph - N/A   Mostly Cloudy
8:15 AM 33.8 °F 25.3 °F 30.2 °F 87% 29.59 in 4.3 mi NE 11.5 mph - N/A   Mostly Cloudy
8:45 AM 33.8 °F 25.8 °F 30.2 °F 87% 29.59 in 3.7 mi NNE 10.4 mph - N/A   Mostly Cloudy
9:00 AM - - - N/A% - 6.2 mi NNE 12.7 mph - N/A   Overcast
9:15 AM 33.8 °F 23.5 °F 30.2 °F 87% 29.59 in 3.7 mi NNE 16.1 mph - N/A   Scattered Clouds
10:15 AM 35.6 °F 26.6 °F 30.2 °F 81% 29.62 in 3.7 mi NNE 13.8 mph - N/A   Scattered Clouds
10:45 AM 37.4 °F 28.5 °F 32.0 °F 81% 29.62 in 4.3 mi NNE 15.0 mph - N/A   Mostly Cloudy
11:15 AM 35.6 °F 27.5 °F 30.2 °F 81% 29.62 in 3.7 mi NE 11.5 mph - N/A   Scattered Clouds
11:45 AM 37.4 °F 29.8 °F 32.0 °F 81% 29.62 in 3.7 mi NE 11.5 mph - N/A   Mostly Cloudy
12:00 PM - - - N/A% - 5.0 mi NNE 12.7 mph - N/A   Overcast
12:15 PM 37.4 °F 30.3 °F 32.0 °F 81% 29.62 in 3.7 mi NE 10.4 mph - N/A   Mostly Cloudy
12:45 PM 37.4 °F 29.3 °F 32.0 °F 81% 29.62 in 3.7 mi NE 12.7 mph - N/A   Mostly Cloudy
1:00 PM 38 °F - 32 °F 72% 29.63 in 4 mi NE 13.4 mph - -   Partly Cloudy
1:15 PM 37.4 °F 29.3 °F 32.0 °F 81% 29.62 in 3.7 mi NE 12.7 mph - N/A   Mostly Cloudy
1:45 PM 37.4 °F 29.8 °F 32.0 °F 81% 29.62 in 3.7 mi NE 11.5 mph - N/A   Overcast
2:15 PM 37.4 °F 29.3 °F 32.0 °F 81% 29.62 in 3.7 mi NE 12.7 mph - N/A   Overcast
2:45 PM 39.2 °F 31.2 °F 32.0 °F 75% 29.62 in 3.7 mi NE 13.8 mph - N/A   Mostly Cloudy
3:15 PM 37.4 °F 29.8 °F 32.0 °F 81% 29.62 in 3.7 mi NE 11.5 mph - N/A   Mostly Cloudy
3:45 PM 37.4 °F 29.8 °F 32.0 °F 81% 29.65 in 3.7 mi NE 11.5 mph - N/A   Overcast
4:15 PM 37.4 °F 29.8 °F 32.0 °F 81% 29.62 in 3.7 mi NE 11.5 mph - N/A   Overcast
4:45 PM 35.6 °F 27.1 °F 32.0 °F 87% 29.65 in 3.7 mi NE 12.7 mph - N/A   Overcast
5:00 PM - - - N/A% - - North - - N/A   Unknown
7:00 PM 34 °F - 29 °F 77% 29.68 in - NNE 13.4 mph - -  
10:21 PM 32.0 °F 21.2 °F 26.6 °F 80% 29.65 in - NNE 16.1 mph 27.6 mph N/A   Unknown